Preview of NWS' New Version of Forecast
This preview is not operational and should not be used for support decisions.
Latest weather observations around

Norwood, Norwood Memorial Airport (KOWD)

Using English Units (Switch to International System of Units)
Date/ Time (EDT) Wind (mph) Vis. (mi) Weather Sky Cond. Temp (°F) Rel. Humidity Wind Chill (°F) Heat Index (°F) Pressure Precip. (in)
Air Dwpt 6 hour Altimeter (inHg) Sea level (inHg) 1 hr 3 hr 6 hr
Max Min
May 28 04:40 NE 7 3 Fog/Mist BKN005 OVC010 52 50     93%     30.09        
May 28 03:53 NNE 5 2 Fog/Mist OVC005 52 51     97%     30.1 30.1      
May 28 00:53 NE 7 5 Fog/Mist OVC007 52 50     93%     30.14 30.14      
May 27 22:53 NE 6 8 Cloudy OVC008 52 50     93%     30.16 30.16      
May 27 21:53 NE 6 7 Cloudy OVC008 52 49     89%     30.18 30.18      
May 27 20:53 NE 8 7 Cloudy OVC008 52 49     89%     30.17 30.17      
May 27 20:07 NE 9 5 Fog/Mist OVC009 52 49     89%     30.17        
May 27 19:53 NE 10 6 Fog/Mist OVC010 52 49     89%     30.17 30.17 0   0
May 27 18:53 NE 10 7 Clear   53 48     83%     30.17 30.16      
May 27 18:24 7 5 Haze OVC014 53 48     83%     30.17        
May 27 17:53 ENE 9 10 Cloudy OVC017 53 47     80%     30.16 30.16      
May 27 16:53 NE 14 10 Cloudy OVC019 54 47     77%     30.16 30.16      
May 27 15:53 ENE 18 10 Cloudy OVC023 55 46     72%     30.17 30.16      
May 27 14:53 NE 8 10 Cloudy OVC023 56 46     69%     30.18 30.18      
May 27 13:53 ENE 13 10 Cloudy OVC024 56 46     69%     30.19 30.19      
May 27 12:53 ENE 11 10 Cloudy OVC025 57 46     67%     30.18 30.18      
May 27 11:53 ENE 17 10 Cloudy OVC027 58 47     67%     30.18 30.18      
May 27 10:53 NE 10 10 Cloudy OVC020 57 49     74%     30.18 30.18      
May 27 09:53 ENE 10 10 Cloudy OVC015 57 50     77%     30.17 30.17      
May 27 09:49 ENE 10 9 Cloudy OVC015 57 50     77%     30.17        
May 27 08:53 ENE 11 8 Cloudy OVC012 56 51     84%     30.17 30.17      
May 27 08:31 NE 10 3 Fog/Mist OVC014 55 52     89%     30.16        
May 27 07:53 NE 14 8 Cloudy OVC016 57 51     81%     30.15 30.14     0
May 27 06:53 ENE 11 9 Cloudy OVC018 57 52     83%     30.12 30.11      
May 27 06:33 ENE 6 9 Cloudy OVC016 58 53     84%     30.11        
May 27 05:53 NE 10 9 Cloudy OVC011 58 54     87%     30.09 30.09      
May 27 05:39 NE 9 10 Cloudy OVC010 58 55     90%     30.08        
May 27 04:53 NE 9 9 Cloudy OVC008 59 56     90%     30.07 30.06   0  
May 27 04:16 3 9 Cloudy BKN009 OVC017 60 56     86%     30.05        
May 27 04:05 NE 11 9 Cloudy SCT009 OVC016 60 57     90%     30.02        
May 27 03:53 NE 13 8 Cloudy BKN009 OVC014 60 57     90%     30.03 30.03      
May 27 03:01 NE 8 9 Cloudy BKN012 OVC022 64 61     90%     30.01        
May 27 02:53 ENE 6 10 Cloudy SCT012 OVC022 64 61     90%     30.02 30.01 0    
May 27 02:30 E 6 10 Cloudy SCT012 OVC021 64 61     90%     30.01   0    
May 27 02:09 E 5 10 Cloudy BKN010 BKN019 OVC031 64 61     90%     30.01   0    
May 27 01:56 SSW 3 8 Light Rain SCT009 BKN019 OVC100 64 62     93%     30.01   0    
May 27 01:53 3 8 Light Rain SCT012 BKN031 OVC110 63 61     93%     30.01 30.01 0   0
May 27 00:53 NNE 5 10 Mostly Clear FEW110 66 61     84%     29.99 29.99      
May 26 23:53 NNE 3 10 Mostly Cloudy FEW090 BKN110 67 61     81%     29.98 29.97      
May 26 22:53 E 5 10 Clear CLR 68 61     78%     29.96 29.95      
May 26 21:53 ENE 7 10 Mostly Clear FEW011 67 61     81%     29.94 29.93      
May 26 20:53 ENE 9 10 Clear CLR 70 61     73%     29.9 29.89      
May 26 19:53 NE 13 10 Mostly Cloudy BKN085 72 58     61%   72 29.86 29.85      
May 26 18:53 NE 15 10 Clear CLR 78 57     48%   78 29.8 29.79      
May 26 17:53 W 6 10 Clear CLR 88 56     34%   86 29.76 29.76      
May 26 16:53 WSW 7 10 Clear CLR 89 58     35%   88 29.76 29.75      
May 26 15:53 SW 9 10 Clear CLR 90 60     37%   90 29.75 29.75      
May 26 14:53 7 10 Clear CLR 90 57     33%   89 29.75 29.75      
May 26 13:53 WNW 5 10 Clear CLR 90 56     32%   88 29.75 29.74      
May 26 12:53 WSW 10 10 Clear CLR 88 57     35%   87 29.76 29.75      
May 26 11:53 W 7 10 Clear CLR 87 61     42%   87 29.76 29.76      
May 26 10:53 WSW 14 10 Clear CLR 84 59     43%   84 29.77 29.76      
May 26 09:53 WSW 8 10 Clear CLR 84 62     48%   85 29.76 29.76      
May 26 08:53 WSW 11 10 Clear CLR 80 61     52%   81 29.77 29.76      
May 26 07:53 7 10 Clear CLR 77 63     62%   77 29.76 29.76      
May 26 06:53 SW 7 10 Clear CLR 73 63     71%   73 29.75 29.75      
May 26 05:53 Calm 10 Clear CLR 70 61     73%     29.74 29.74      
May 26 04:53 WSW 3 10 Clear CLR 70 60     71%     29.73 29.73      
May 26 03:53 SW 5 10 Clear CLR 70 59     68%     29.73 29.72      
May 26 02:53 WSW 8 10 Clear CLR 72 59     64%   72 29.73 29.73      
May 26 01:53 SW 10 10 Clear CLR 72 59     64%   72 29.74 29.73      
May 26 00:53 SW 9 10 Clear CLR 72 59     64%   72 29.75 29.75      
May 25 23:53 WSW 9 10 Clear CLR 73 59     61%   73 29.76 29.75      
May 25 22:53 SW 7 10 Clear CLR 74 58     57%   74 29.76 29.75      
May 25 21:53 WSW 9 10 Clear CLR 77 57     50%   77 29.76 29.76      
May 25 20:53 SSW 10 10 Clear CLR 78 56     47%   78 29.76 29.76      
May 25 19:53 SSW 10 10 Clear CLR 82 54     38%   81 29.76 29.75      
May 25 18:53 SW 11 10 Clear CLR 86 48     27%   83 29.74 29.74      
May 25 17:53 WSW 14 10 Clear CLR 88 48     25%   85 29.74 29.74      
May 25 16:53 WSW 9 10 Clear CLR 89 50     26%   86 29.75 29.75      
May 25 15:53 SW 17 10 Clear CLR 88 46     23%   85 29.77 29.77      
May 25 14:53 W 17 10 Clear CLR 88 49     26%   85 29.79 29.79      
May 25 13:53 W 17 10 Clear CLR 88 48     25%   85 29.82 29.81      
May 25 12:53 W 17 10 Clear CLR 88 48     25%   85 29.84 29.84      
May 25 11:53 WSW 11 10 Clear CLR 86 51     30%   84 29.87 29.87      
May 25 10:53 WSW 13 10 Clear CLR 83 53     36%   82 29.9 29.9      
May 25 09:53 WSW 11 10 Clear CLR 78 55     45%   78 29.93 29.92      
May 25 08:53 WSW 7 10 Clear CLR 72 53     51%   71 29.95 29.94      
May 25 07:53 WSW 7 10 Clear CLR 64 51     63%     29.96 29.96      
May 25 06:53 WSW 5 10 Clear CLR 58 50     75%     29.97 29.97      
May 25 05:53 SW 5 10 Clear CLR 55 49     80%     29.98 29.97      
May 25 03:53 S 5 10 Clear CLR 52 48     86%     29.99 29.98      
May 15 06:53 S 6 3 Fog/Mist OVC003 59 57     93%     29.85 29.85      
May 15 04:53 S 5 9 Clear   57 54     89%     29.86 29.85      
May 14 23:53 S 5 10 Clear CLR 57 53     87%     29.9 29.9      
May 14 13:53 SSW 9 10 Partly Cloudy SCT035 70 53     55%     29.93 29.93      
May 14 06:19 SSE 5 10 Cloudy BKN007 OVC030 52 49     89%     30.02        
May 13 23:53 SSE 5 10 Clear CLR 50 47     89% 48   30.08 30.07      
May 13 13:53 NNE 6 10 Mostly Cloudy BKN021 BKN026 60 49     67%     30.18 30.18      
May 13 00:53 NNE 5 6 Fog/Mist OVC006 52 49     89%     30.11 30.11      
May 12 14:15 N 3 10 Cloudy BKN009 OVC013 53 50     89%     30.14        
May 11 20:53 SSE 3 10 Clear CLR 54 32     43%     30.07 30.07      
May 11 12:53   10 Clear CLR 68 35     30%     29.96 29.96      
Jun 12 05:53 Calm 10 Clear CLR 69 65     87%     29.96 29.96      
Jun 10 22:53 SSW 7 10 Clear   73 56     55%   73 29.99 29.99      
Jun 10 15:53 S 13 10 Clear CLR 83 55     38%   82 29.91 29.91      
Jun 08 08:53 Calm 10 Clear CLR 66 55     68%     30.04 30.04      
Jun 07 22:53 Calm 10 Clear CLR 52 50     93%     30.02 30.02      
Jun 07 11:53 NE 8 10 Cloudy OVC075 64 50     60%     29.96 29.96      
Jun 06 13:35 NNE 14 6 Light Rain and Fog/Mist SCT009 SCT018 OVC039 49 47     93% 44   29.83   0    
Jun 06 11:53 NE 11 1.25 Light Rain and Fog/Mist BKN007 OVC014 50 48     93% 46   29.84 29.83 0    
Notice The following observation data may not be complete
Jun 06 05:05   1.75 Fog/Mist OVC006          %              
Jun 05 21:53 ENE 9 2.5 Light Rain and Fog/Mist OVC006 54 53     97%     29.84 29.83 0    
Jun 05 18:53 ENE 8 1.75 Fog/Mist OVC006 55 53     93%     29.83 29.82